EW5742 Weather Reports


Display with metric or nautical units.
time (UTC)temp
F
wind
direction
speed
MPH
gust
MPH
rain 1hr
in
rain 24hr
in
rain mn
in
humidity
%
barometer
mb
20260906161537 86 290 2.0 8.0 0.00 0.83 0.01 73 1012.0
20260906160035 85 44 3.0 7.0 0.00 0.83 0.01 73 1012.3
20260906154512 85 49 2.0 6.0 0.00 0.83 0.01 74 1012.3
20260906153003 84 311 0.0 8.0 0.00 0.83 0.01 78 1012.3
20260906151528 82 133 1.0 4.0 0.00 0.83 0.01 81 1012.4
20260906150036 82 307 1.0 4.0 0.00 0.83 0.01 83 1012.2
20260906144554 81 307 1.0 7.0 0.00 0.83 0.01 83 1012.2
20260906143051 80 304 0.0 3.0 0.00 0.83 0.01 87 1012.1
20260906141519 79 8 2.0 5.0 0.00 0.83 0.01 87 1012.0
20260906140031 80 349 1.0 5.0 0.00 0.83 0.01 87 1011.9
20260906134524 79 18 1.0 5.0 0.00 0.83 0.01 89 1011.7
20260906133006 78 330 0.0 5.0 0.00 0.83 0.01 90 1011.5
20260906131505 78 316 0.0 3.0 0.00 0.83 0.01 92 1011.4
20260906130106 76 28 1.0 4.0 0.00 0.83 0.01 94 1011.3
20260906124641 75 304 1.0 4.0 0.00 0.83 0.01 95 1011.3
20260906123029 74 348 0.0 5.0 0.00 0.83 0.01 95 1011.2
20260906121517 73 304 0.0 4.0 0.01 0.83 0.01 96 1011.1
20260906120029 72 338 0.0 4.0 0.01 0.83 0.01 96 1011.2
20260906114511 71 320 0.0 1.0 0.01 0.83 0.01 97 1011.2
20260906113008 71 309 0.0 2.0 0.01 0.83 0.01 97 1011.0
20260906111548 70 316 0.0 0.0 0.00 0.82 0.00 96 1010.9
20260906110045 70 316 0.0 0.0 0.00 0.82 0.00 96 1010.9
20260906104553 70 316 0.0 0.0 0.00 0.82 0.00 96 1010.7
20260906103141 70 316 0.0 0.0 0.00 0.82 0.00 96 1010.5
20260906101551 70 316 0.0 0.0 0.00 0.82 0.00 96 1010.2
20260906101546 70 316 0.0 0.0 0.00 0.82 0.00 96 1010.3
20260906100011 70 316 0.0 0.0 0.00 0.82 0.00 96 1010.2
20260906094508 70 316 0.0 0.0 0.00 0.82 0.00 96 1010.0
20260906093004 69 316 0.0 0.0 0.00 0.82 0.00 96 1010.0
20260906091504 70 316 0.0 0.0 0.00 0.82 0.00 96 1009.8
20260906090003 70 316 0.0 0.0 0.00 0.82 0.00 96 1009.7
20260906084600 70 316 0.0 0.0 0.00 0.82 0.00 96 1009.6
20260906083049 70 316 0.0 0.0 0.00 0.82 0.00 96 1009.5
20260906081549 70 316 0.0 0.0 0.00 0.82 0.00 96 1009.6
20260906080051 70 316 0.0 0.0 0.00 0.82 0.00 96 1009.5
20260906074545 70 316 0.0 0.0 0.00 0.82 0.00 96 1009.5
20260906073021 70 316 0.0 0.0 0.00 0.82 0.00 96 1009.6
20260906071513 70 316 0.0 0.0 0.00 0.82 0.00 96 1009.4
20260906070044 70 316 0.0 0.0 0.00 0.82 0.00 96 1009.4
20260906064547 71 316 0.0 0.0 0.00 0.82 0.00 96 1009.6
20260906063036 70 30 0.0 1.0 0.00 0.82 0.00 96 1009.8
20260906061537 70 32 0.0 1.0 0.00 0.82 0.00 96 1009.6
20260906060033 70 317 0.0 2.0 0.00 0.82 0.00 96 1009.7
20260906054531 70 322 0.0 2.0 0.00 0.82 0.00 96 1010.1
20260906053059 70 326 0.0 0.0 0.00 0.82 0.00 96 1010.5
20260906051558 70 311 0.0 1.0 0.00 0.82 0.00 96 1010.6
20260906050116 70 311 0.0 1.0 0.00 0.82 0.82 95 1010.6
20260906044551 70 310 0.0 1.0 0.00 0.82 0.82 95 1010.7
20260906044506 70 310 0.0 1.0 0.00 0.82 0.82 95 1010.8
20260906043050 70 334 0.0 2.0 0.00 0.82 0.82 95 1010.8
20260906041552 70 342 0.0 1.0 0.00 0.82 0.82 95 1010.4
20260906040044 70 326 0.0 1.0 0.00 0.82 0.82 95 1010.3
20260906034546 71 319 0.0 1.0 0.00 0.82 0.82 95 1010.0
20260906033052 71 314 0.0 1.0 0.00 0.82 0.82 95 1010.4
20260906031542 71 316 0.0 3.0 0.00 0.82 0.82 95 1011.0
20260906030013 71 334 1.0 4.0 0.00 0.82 0.82 95 1011.1
20260906024513 71 313 0.0 4.0 0.00 0.82 0.82 95 1011.1
20260906023040 71 8 0.0 5.0 0.00 0.82 0.82 95 1010.9
20260906021548 71 314 0.0 3.0 0.00 0.82 0.82 95 1010.9
20260906020010 71 315 0.0 3.0 0.00 0.82 0.82 95 1010.5
20260906014510 71 30 0.0 3.0 0.00 0.82 0.82 95 1010.5
20260906013039 71 346 0.0 2.0 0.00 0.82 0.82 95 1010.1
20260906011536 71 264 0.0 1.0 0.01 0.82 0.82 95 1009.6
20260906010031 71 264 0.0 1.0 0.02 0.82 0.82 95 1009.2
20260906004530 71 262 0.0 1.0 0.02 0.82 0.82 95 1008.8
20260906003027 71 262 0.0 0.0 0.02 0.82 0.82 95 1008.3
20260906001527 71 262 0.0 0.0 0.01 0.81 0.81 95 1008.2
20260906000057 71 261 0.0 1.0 0.00 0.80 0.80 95 1009.1
20260905234611 71 36 0.0 3.0 0.03 0.80 0.80 95 1009.9
20260905231533 71 237 0.0 1.0 0.06 0.80 0.80 95 1010.2
20260905230020 72 177 0.0 5.0 0.06 0.80 0.80 95 1009.2
20260905224528 72 150 2.0 6.0 0.02 0.76 0.76 95 1009.5
20260905223022 72 246 0.0 4.0 0.04 0.75 0.75 95 1010.2
20260905221530 72 305 0.0 2.0 0.04 0.74 0.74 95 1008.7
20260905220047 72 226 0.0 6.0 0.11 0.74 0.74 94 1008.6
20260905214549 72 105 2.0 13.0 0.13 0.74 0.74 95 1009.6
20260905213045 70 296 1.0 10.0 0.37 0.71 0.71 94 1010.1
20260905211544 71 113 0.0 2.0 0.70 0.70 0.70 94 1009.7
20260905210040 71 113 3.0 7.0 0.63 0.63 0.63 93 1009.6
20260905204537 73 280 5.0 18.0 0.57 0.57 0.57 92 1009.8
20260905203034 74 301 5.0 21.0 0.33 0.33 0.33 87 1008.6
20260905201529 85 295 6.0 15.0 0.00 0.00 0.00 71 1008.4
20260905200041 91 214 3.0 8.0 0.00 0.00 0.00 74 1007.3
20260905200035 91 162 2.0 8.0 0.00 0.00 0.00 76 1007.3
20260905194528 90 105 2.0 10.0 0.00 0.00 0.00 76 1007.6
20260905193128 91 139 3.0 12.0 0.00 0.00 0.00 75 1007.7
20260905191518 91 139 3.0 6.0 0.00 0.00 0.00 75 1008.3
20260905190014 94 150 3.0 7.0 0.00 0.00 0.00 71 1008.6
20260905184520 94 117 4.0 7.0 0.00 0.00 0.00 71 1008.8
20260905183005 94 252 1.0 4.0 0.00 0.00 0.00 67 1009.0
20260905181533 92 298 0.0 5.0 0.00 0.00 0.00 70 1009.3
20260905180034 93 70 0.0 4.0 0.00 0.00 0.00 70 1009.4
20260905174608 93 310 0.0 4.0 0.00 0.00 0.00 69 1009.5
20260905174501 92 349 1.0 4.0 0.00 0.00 0.00 69 1009.4
20260905173057 94 297 0.0 4.0 0.00 0.00 0.00 66 1009.6
20260905171548 94 8 0.0 6.0 0.00 0.00 0.00 69 1009.7
20260905170031 95 311 0.0 5.0 0.00 0.00 0.00 66 1010.1
20260905164522 95 299 2.0 6.0 0.00 0.00 0.00 66 1010.3
20260905163010 94 333 1.0 6.0 0.00 0.00 0.00 64 1010.5